When you browse on this site, cookies collect data to enhance your experience and personalize the content and advertising you see.
Visit our Privacy Policy to learn more. By continuing to use the site, you agree to this use of cookies and data.
  • Em Portugal
  • Lista de países
  • Para 7 dias
  • Temperatura da água
  • Mapas de satélite
  • Mapa do tempo
  • Widgets de tempo
  • user-avatar
    Iniciar Sessão

    Previsão horária em Sozopol

    Hoje, 13 Dezembro, Quinta-feira

    Tempo Temperatura Precipitação Vento Pressão Humidade
    00:00 +1°C° 0 mm 3 m/s 762 mmHg 80%
    01:00 +1°C° 0 mm 3 m/s 762 mmHg 79%
    02:00 0°C° 0 mm 4 m/s 762 mmHg 79%
    03:00 -1°C° 0 mm 4 m/s 762 mmHg 78%
    04:00 -1°C° 0 mm 4 m/s 762 mmHg 77%
    05:00 -1°C° 0 mm 4 m/s 762 mmHg 76%
    06:00 -1°C° 0 mm 4 m/s 762 mmHg 77%
    07:00 -1°C° 0 mm 4 m/s 762 mmHg 77%
    08:00 -1°C° 0 mm 4 m/s 762 mmHg 77%
    09:00 +1°C° 0 mm 4 m/s 762 mmHg 71%
    10:00 +3°C° 0 mm 4 m/s 762 mmHg 64%
    11:00 +5°C° 0 mm 5 m/s 762 mmHg 57%
    12:00 +5°C° 0 mm 4 m/s 762 mmHg 57%
    13:00 +6°C° 0 mm 4 m/s 762 mmHg 56%
    14:00 +6°C° 0 mm 4 m/s 761 mmHg 55%
    15:00 +5°C° 0 mm 3 m/s 761 mmHg 61%
    16:00 +4°C° 0 mm 3 m/s 761 mmHg 67%
    17:00 +4°C° 0 mm 2 m/s 761 mmHg 73%
    18:00 +4°C° 0 mm 2 m/s 761 mmHg 74%
    19:00 +3°C° 0 mm 2 m/s 761 mmHg 75%
    20:00 +4°C° 0 mm 1 m/s 761 mmHg 76%
    21:00 +4°C° 0 mm 1 m/s 761 mmHg 76%
    22:00 +4°C° 0 mm 1 m/s 761 mmHg 76%
    23:00 +4°C° 0 mm 1 m/s 762 mmHg 76%

    Amanhã, 14 Dezembro, Sexta-feira

    Tempo Temperatura Precipitação Vento Pressão Humidade
    00:00 +4°C° 0 mm 1 m/s 762 mmHg 76%
    01:00 +4°C° 0 mm 1 m/s 762 mmHg 75%
    02:00 +4°C° 0 mm 1 m/s 762 mmHg 75%
    03:00 +4°C° 0 mm 1 m/s 762 mmHg 75%
    04:00 +4°C° 0 mm 1 m/s 762 mmHg 76%
    05:00 +4°C° 0 mm 1 m/s 762 mmHg 76%
    06:00 +4°C° 0 mm 1 m/s 762 mmHg 77%
    07:00 +4°C° 0 mm 1 m/s 762 mmHg 79%
    08:00 +4°C° 0 mm 1 m/s 762 mmHg 80%
    09:00 +4°C° 0 mm 2 m/s 762 mmHg 76%
    10:00 +6°C° 0 mm 2 m/s 762 mmHg 73%
    11:00 +7°C° 0 mm 2 m/s 762 mmHg 69%
    12:00 +7°C° 0 mm 2 m/s 762 mmHg 70%
    13:00 +7°C° 0 mm 2 m/s 762 mmHg 72%
    14:00 +7°C° 0 mm 2 m/s 762 mmHg 73%
    15:00 +7°C° 0.1 mm 2 m/s 762 mmHg 77%
    16:00 +6°C° 0.1 mm 2 m/s 762 mmHg 81%
    17:00 +6°C° 0.1 mm 2 m/s 762 mmHg 85%
    18:00 +6°C° 0.1 mm 2 m/s 762 mmHg 86%
    19:00 +6°C° 0.1 mm 2 m/s 762 mmHg 87%
    20:00 +6°C° 0.1 mm 2 m/s 762 mmHg 88%
    21:00 +6°C° 0.3 mm 2 m/s 763 mmHg 90%
    22:00 +6°C° 0.3 mm 2 m/s 763 mmHg 91%
    23:00 +6°C° 0.3 mm 2 m/s 763 mmHg 92%

    Depois de amanhã, 15 Dezembro, Sábado

    Tempo Temperatura Precipitação Vento Pressão Humidade
    00:00 +6°C° 0.4 mm 2 m/s 762 mmHg 93%
    01:00 +6°C° 0.4 mm 2 m/s 762 mmHg 94%
    02:00 +6°C° 0.4 mm 2 m/s 762 mmHg 95%
    03:00 +6°C° 0.5 mm 2 m/s 762 mmHg 96%
    04:00 +7°C° 0.5 mm 2 m/s 761 mmHg 96%
    05:00 +7°C° 0.5 mm 2 m/s 761 mmHg 97%
    06:00 +7°C° 0.6 mm 2 m/s 761 mmHg 97%
    07:00 +7°C° 0.6 mm 3 m/s 761 mmHg 97%
    08:00 +7°C° 0.6 mm 3 m/s 761 mmHg 97%
    09:00 +8°C° 0.3 mm 3 m/s 761 mmHg 96%
    10:00 +8°C° 0.3 mm 3 m/s 761 mmHg 96%
    11:00 +9°C° 0.3 mm 3 m/s 761 mmHg 95%
    12:00 +9°C° 0.2 mm 3 m/s 761 mmHg 95%
    13:00 +9°C° 0.2 mm 3 m/s 761 mmHg 95%
    14:00 +10°C° 0.2 mm 3 m/s 760 mmHg 95%
    15:00 +10°C° 0.6 mm 3 m/s 760 mmHg 95%
    16:00 +10°C° 0.6 mm 3 m/s 760 mmHg 96%
    17:00 +9°C° 0.6 mm 3 m/s 760 mmHg 96%
    18:00 +9°C° 0.2 mm 3 m/s 760 mmHg 96%
    19:00 +9°C° 0.2 mm 3 m/s 760 mmHg 96%
    20:00 +9°C° 0.2 mm 3 m/s 760 mmHg 96%
    21:00 +9°C° 0.2 mm 3 m/s 759 mmHg 96%
    22:00 +9°C° 0.2 mm 2 m/s 759 mmHg 96%
    23:00 +9°C° 0.2 mm 2 m/s 759 mmHg 95%

    16 Dezembro, Domingo

    Tempo Temperatura Precipitação Vento Pressão Humidade
    00:00 +9°C° 0 mm 2 m/s 759 mmHg 95%
    01:00 +9°C° 0 mm 2 m/s 759 mmHg 94%
    02:00 +9°C° 0 mm 2 m/s 758 mmHg 93%
    03:00 +9°C° 0 mm 2 m/s 758 mmHg 93%
    04:00 +9°C° 0 mm 2 m/s 758 mmHg 93%
    05:00 +9°C° 0 mm 2 m/s 757 mmHg 92%
    06:00 +9°C° 0 mm 2 m/s 757 mmHg 92%
    07:00 +9°C° 0 mm 2 m/s 757 mmHg 92%
    08:00 +9°C° 0 mm 2 m/s 758 mmHg 91%
    09:00 +11°C° 0 mm 1 m/s 757 mmHg 88%
    10:00 +12°C° 0 mm 1 m/s 757 mmHg 85%
    11:00 +13°C° 0 mm 1 m/s 757 mmHg 82%
    12:00 +13°C° 0 mm 1 m/s 757 mmHg 80%
    13:00 +14°C° 0 mm 1 m/s 757 mmHg 78%
    14:00 +15°C° 0 mm 1 m/s 756 mmHg 75%
    15:00 +13°C° 0 mm 1 m/s 756 mmHg 80%
    16:00 +12°C° 0 mm 1 m/s 756 mmHg 84%
    17:00 +10°C° 0 mm 2 m/s 756 mmHg 89%
    18:00 +10°C° 0.1 mm 2 m/s 757 mmHg 89%
    19:00 +9°C° 0.1 mm 3 m/s 757 mmHg 89%
    20:00 +8°C° 0.1 mm 3 m/s 757 mmHg 89%
    21:00 +7°C° 0 mm 4 m/s 757 mmHg 89%
    22:00 +6°C° 0 mm 5 m/s 757 mmHg 88%
    23:00 +5°C° 0 mm 6 m/s 758 mmHg 88%

    17 Dezembro, Segunda-feira

    Tempo Temperatura Precipitação Vento Pressão Humidade
    00:00 +4°C° 0.2 mm 6 m/s 758 mmHg 88%
    01:00 +4°C° 0.2 mm 6 m/s 758 mmHg 88%
    02:00 +3°C° 0.2 mm 6 m/s 758 mmHg 88%
    03:00 +3°C° 0.3 mm 5 m/s 758 mmHg 87%
    04:00 +3°C° 0.3 mm 5 m/s 758 mmHg 85%
    05:00 +3°C° 0.3 mm 5 m/s 758 mmHg 84%
    06:00 +2°C° 0.2 mm 5 m/s 758 mmHg 84%
    07:00 +3°C° 0.2 mm 4 m/s 759 mmHg 84%
    08:00 +3°C° 0.2 mm 4 m/s 759 mmHg 84%
    09:00 +4°C° 0 mm 3 m/s 759 mmHg 79%
    10:00 +4°C° 0 mm 3 m/s 759 mmHg 73%
    11:00 +5°C° 0 mm 3 m/s 759 mmHg 68%
    12:00 +7°C° 0 mm 3 m/s 759 mmHg 65%
    13:00 +7°C° 0 mm 3 m/s 759 mmHg 63%
    14:00 +8°C° 0 mm 3 m/s 759 mmHg 60%
    15:00 +7°C° 0 mm 3 m/s 759 mmHg 63%
    16:00 +7°C° 0 mm 3 m/s 759 mmHg 66%
    17:00 +5°C° 0 mm 3 m/s 759 mmHg 69%
    18:00 +5°C° 0 mm 2 m/s 760 mmHg 71%
    19:00 +5°C° 0 mm 2 m/s 760 mmHg 72%
    20:00 +4°C° 0 mm 2 m/s 760 mmHg 73%
    21:00 +4°C° 0 mm 2 m/s 761 mmHg 73%
    22:00 +4°C° 0 mm 2 m/s 761 mmHg 73%
    23:00 +3°C° 0 mm 2 m/s 761 mmHg 73%

    18 Dezembro, Terça-feira

    Tempo Temperatura Precipitação Vento Pressão Humidade
    00:00 +3°C° 0 mm 2 m/s 761 mmHg 73%
    01:00 +2°C° 0 mm 3 m/s 761 mmHg 73%
    02:00 +1°C° 0 mm 3 m/s 761 mmHg 73%
    03:00 +1°C° 0 mm 3 m/s 761 mmHg 73%
    04:00 +1°C° 0 mm 3 m/s 761 mmHg 73%
    05:00 +1°C° 0 mm 3 m/s 761 mmHg 73%
    06:00 +1°C° 0 mm 3 m/s 761 mmHg 73%
    07:00 +1°C° 0 mm 3 m/s 761 mmHg 73%
    08:00 +1°C° 0 mm 3 m/s 762 mmHg 72%
    09:00 +2°C° 0 mm 3 m/s 762 mmHg 68%
    10:00 +3°C° 0 mm 3 m/s 762 mmHg 64%
    11:00 +4°C° 0 mm 3 m/s 762 mmHg 59%
    12:00 +4°C° 0 mm 4 m/s 762 mmHg 60%
    13:00 +5°C° 0 mm 4 m/s 762 mmHg 61%
    14:00 +5°C° 0 mm 4 m/s 761 mmHg 62%
    15:00 +3°C° 0 mm 5 m/s 761 mmHg 67%
    16:00 +2°C° 0 mm 5 m/s 762 mmHg 73%
    17:00 +1°C° 0 mm 5 m/s 762 mmHg 78%
    18:00 +1°C° 0 mm 6 m/s 762 mmHg 80%
    19:00 +1°C° 0 mm 6 m/s 762 mmHg 81%
    20:00 -1°C° 0 mm 7 m/s 762 mmHg 83%
    21:00 -1°C° 0 mm 7 m/s 762 mmHg 82%
    22:00 -1°C° 0 mm 7 m/s 763 mmHg 81%
    23:00 -2°C° 0 mm 8 m/s 763 mmHg 81%
    Mostrar mais